Time,TemperatureF,DewpointF,PressureIn,WindDirection,WindDirectionDegrees,WindSpeedMPH,WindSpeedGustMPH,Humidity,HourlyPrecipIn,Conditions,Clouds,dailyrainin,SolarRadiationWatts/m^2,SoftwareType,DateUTC
2013-02-08 00:00:00,47.3,45.7,29.85,North,5,5.0,10.0,94,0.01,,---,2.19,0.00,VWS V14.01,2013-02-08 05:00:00,
2013-02-08 00:01:00,47.3,45.7,29.85,NE,41,4.0,10.0,94,0.01,,---,0.00,0.00,VWS V14.01,2013-02-08 05:01:00,
2013-02-08 00:02:00,47.3,45.7,29.85,NE,41,4.0,10.0,94,0.01,,---,0.00,0.00,VWS V14.01,2013-02-08 05:02:00,
2013-02-08 00:07:00,47.2,45.6,29.85,NNE,15,7.0,11.0,94,0.01,,---,0.00,0.00,VWS V14.01,2013-02-08 05:07:00,
2013-02-08 00:12:00,47.1,45.5,29.85,North,5,4.0,8.0,94,0.01,,---,0.00,0.00,VWS V14.01,2013-02-08 05:12:00,
2013-02-08 00:19:00,47.0,45.4,29.86,NNE,12,10.0,10.0,94,0.00,,---,0.00,0.00,VWS V14.01,2013-02-08 05:19:00,
2013-02-08 00:24:00,46.9,45.3,29.86,North,350,8.0,10.0,94,0.00,,---,0.00,0.00,VWS V14.01,2013-02-08 05:24:00,
2013-02-08 00:29:00,46.9,45.3,29.86,North,5,5.0,10.0,94,0.00,,---,0.00,0.00,VWS V14.01,2013-02-08 05:29:00,
2013-02-08 00:34:00,46.8,45.2,29.86,North,5,6.0,12.0,94,0.00,,---,0.00,0.00,VWS V14.01,2013-02-08 05:34:00,
2013-02-08 00:40:00,46.7,45.1,29.86,North,5,7.0,13.0,94,0.00,,---,0.00,0.00,VWS V14.01,2013-02-08 05:40:00,
2013-02-08 00:45:00,46.7,45.1,29.86,North,5,8.0,15.0,94,0.00,,---,0.00,0.00,VWS V14.01,2013-02-08 05:45:00,
2013-02-08 00:50:00,46.7,45.1,29.86,NW,313,4.0,13.0,94,0.00,,---,0.00,0.00,VWS V14.01,2013-02-08 05:50:00,
2013-02-08 00:55:00,46.7,45.1,29.85,North,11,7.0,13.0,94,0.00,,---,0.00,0.00,VWS V14.01,2013-02-08 05:55:00,
2013-02-08 01:00:00,46.7,45.1,29.85,NW,319,5.0,14.0,94,0.00,,---,0.00,0.00,VWS V14.01,2013-02-08 06:00:00,
2013-02-08 01:05:00,46.6,45.0,29.85,North,355,4.0,10.0,94,0.00,,---,0.00,0.00,VWS V14.01,2013-02-08 06:05:00,
2013-02-08 01:10:00,46.5,44.9,29.85,NNE,22,11.0,12.0,94,0.00,,---,0.00,0.00,VWS V14.01,2013-02-08 06:10:00,
2013-02-08 01:15:00,46.5,44.9,29.85,North,5,8.0,9.0,94,0.00,,---,0.00,0.00,VWS V14.01,2013-02-08 06:15:00,
2013-02-08 01:20:00,46.4,44.8,29.85,North,355,8.0,10.0,94,0.00,,---,0.00,0.00,VWS V14.01,2013-02-08 06:20:00,
2013-02-08 01:25:00,46.4,44.8,29.85,NNE,12,7.0,12.0,94,0.00,,---,0.00,0.00,VWS V14.01,2013-02-08 06:25:00,
2013-02-08 01:30:00,46.3,44.4,29.84,NE,52,4.0,13.0,93,0.00,,---,0.00,0.00,VWS V14.01,2013-02-08 06:30:00,
2013-02-08 01:35:00,46.3,44.4,29.84,North,11,7.0,11.0,93,0.00,,---,0.00,0.00,VWS V14.01,2013-02-08 06:35:00,
2013-02-08 01:40:00,46.2,44.3,29.85,NNW,347,6.0,12.0,93,0.00,,---,0.00,0.00,VWS V14.01,2013-02-08 06:40:00,
2013-02-08 01:45:00,46.2,44.3,29.85,NNW,331,2.0,11.0,93,0.00,,---,0.00,0.00,VWS V14.01,2013-02-08 06:45:00,
2013-02-08 01:50:00,46.2,44.3,29.85,NNW,344,5.0,7.0,93,0.00,,---,0.00,0.00,VWS V14.01,2013-02-08 06:50:00,
2013-02-08 01:56:00,46.1,44.2,29.86,NNW,338,8.0,12.0,93,0.00,,---,0.00,0.00,VWS V14.01,2013-02-08 06:56:00,
2013-02-08 02:01:00,46.1,44.2,29.85,NW,321,6.0,11.0,93,0.00,,---,0.00,0.00,VWS V14.01,2013-02-08 07:01:00,
2013-02-08 02:06:00,46.1,44.2,29.86,NNW,339,4.0,12.0,93,0.00,,---,0.00,0.00,VWS V14.01,2013-02-08 07:06:00,
2013-02-08 02:11:00,46.1,44.2,29.86,NW,323,0.0,10.0,93,0.00,,---,0.00,0.00,VWS V14.01,2013-02-08 07:11:00,
2013-02-08 02:16:00,46.1,44.2,29.86,NW,315,8.0,11.0,93,0.00,,---,0.00,0.00,VWS V14.01,2013-02-08 07:16:00,
2013-02-08 02:21:00,46.1,44.2,29.86,North,355,7.0,11.0,93,0.00,,---,0.00,0.00,VWS V14.01,2013-02-08 07:21:00,
2013-02-08 02:26:00,46.1,44.2,29.86,North,5,4.0,9.0,93,0.00,,---,0.00,0.00,VWS V14.01,2013-02-08 07:26:00,
2013-02-08 02:31:00,46.1,44.2,29.86,WNW,298,0.0,8.0,93,0.00,,---,0.00,0.00,VWS V14.01,2013-02-08 07:31:00,
2013-02-08 02:36:00,46.1,44.2,29.87,NNW,330,3.0,5.0,93,0.00,,---,0.00,0.00,VWS V14.01,2013-02-08 07:36:00,
2013-02-08 02:41:00,46.1,44.2,29.87,NW,318,4.0,8.0,93,0.00,,---,0.00,0.00,VWS V14.01,2013-02-08 07:41:00,
2013-02-08 02:46:00,46.1,44.2,29.87,WNW,296,3.0,8.0,93,0.00,,---,0.00,0.00,VWS V14.01,2013-02-08 07:46:00,
2013-02-08 02:51:00,46.2,44.3,29.88,NNW,337,4.0,8.0,93,0.00,,---,0.00,0.00,VWS V14.01,2013-02-08 07:51:00,
2013-02-08 02:56:00,46.1,44.2,29.87,NNW,343,5.0,9.0,93,0.00,,---,0.00,0.00,VWS V14.01,2013-02-08 07:56:00,
2013-02-08 03:01:00,46.2,44.3,29.87,North,355,6.0,7.0,93,0.00,,---,0.00,0.00,VWS V14.01,2013-02-08 08:01:00,
2013-02-08 03:06:00,46.1,44.2,29.87,NNW,338,4.0,8.0,93,0.00,,---,0.00,0.00,VWS V14.01,2013-02-08 08:06:00,
2013-02-08 03:11:00,46.1,44.2,29.88,NNW,339,2.0,13.0,93,0.00,,---,0.00,0.00,VWS V14.01,2013-02-08 08:11:00,
2013-02-08 03:17:00,46.1,44.2,29.88,North,351,5.0,6.0,93,0.00,,---,0.00,0.00,VWS V14.01,2013-02-08 08:17:00,
2013-02-08 03:22:00,46.0,44.1,29.88,North,355,3.0,3.0,93,0.00,,---,0.00,0.00,VWS V14.01,2013-02-08 08:22:00,
2013-02-08 03:27:00,46.0,44.1,29.88,North,350,0.0,3.0,93,0.00,,---,0.00,0.00,VWS V14.01,2013-02-08 08:27:00,
2013-02-08 03:32:00,46.0,44.1,29.89,NW,321,3.0,3.0,93,0.00,,---,0.00,0.00,VWS V14.01,2013-02-08 08:32:00,
2013-02-08 03:37:00,45.9,44.0,29.89,North,355,6.0,6.0,93,0.00,,---,0.00,0.00,VWS V14.01,2013-02-08 08:37:00,
2013-02-08 03:42:00,45.9,44.0,29.89,West,275,6.0,8.0,93,0.00,,---,0.00,0.00,VWS V14.01,2013-02-08 08:42:00,
2013-02-08 03:47:00,45.8,43.9,29.89,NNW,333,0.0,0.0,93,0.00,,---,0.00,0.00,VWS V14.01,2013-02-08 08:47:00,
2013-02-08 03:52:00,45.8,43.9,29.89,NW,311,3.0,3.0,93,0.00,,---,0.00,0.00,VWS V14.01,2013-02-08 08:52:00,
2013-02-08 03:57:00,45.8,43.9,29.90,WNW,301,1.0,6.0,93,0.00,,---,0.00,0.00,VWS V14.01,2013-02-08 08:57:00,
2013-02-08 04:02:00,45.8,43.9,29.90,NNW,340,3.0,3.0,93,0.00,,---,0.00,0.00,VWS V14.01,2013-02-08 09:02:00,
2013-02-08 04:07:00,45.8,43.9,29.89,NNW,348,4.0,7.0,93,0.00,,---,0.00,0.00,VWS V14.01,2013-02-08 09:07:00,
2013-02-08 04:12:00,45.7,43.8,29.88,North,360,6.0,6.0,93,0.00,,---,0.00,0.00,VWS V14.01,2013-02-08 09:12:00,
2013-02-08 04:18:00,45.6,43.7,29.88,North,349,6.0,6.0,93,0.00,,---,0.00,0.00,VWS V14.01,2013-02-08 09:18:00,
2013-02-08 04:23:00,45.6,43.7,29.88,NNW,339,3.0,7.0,93,0.00,,---,0.00,0.00,VWS V14.01,2013-02-08 09:23:00,
2013-02-08 04:28:00,45.6,43.7,29.88,NNW,344,4.0,5.0,93,0.00,,---,0.00,0.00,VWS V14.01,2013-02-08 09:28:00,
2013-02-08 04:33:00,45.6,43.7,29.89,North,9,7.0,7.0,93,0.00,,---,0.00,0.00,VWS V14.01,2013-02-08 09:33:00,
2013-02-08 04:38:00,45.7,43.5,29.89,NNW,333,2.0,6.0,92,0.00,,---,0.00,0.00,VWS V14.01,2013-02-08 09:38:00,
2013-02-08 04:43:00,45.7,43.5,29.89,North,5,4.0,7.0,92,0.00,,---,0.00,0.00,VWS V14.01,2013-02-08 09:43:00,
2013-02-08 04:48:00,45.8,43.6,29.89,NW,326,3.0,7.0,92,0.00,,---,0.00,0.00,VWS V14.01,2013-02-08 09:48:00,
2013-02-08 04:53:00,45.8,43.6,29.90,North,360,2.0,3.0,92,0.00,,---,0.00,0.00,VWS V14.01,2013-02-08 09:53:00,
2013-02-08 04:58:00,45.8,43.6,29.90,NNW,347,2.0,5.0,92,0.00,,---,0.00,0.00,VWS V14.01,2013-02-08 09:58:00,
2013-02-08 05:03:00,45.8,43.6,29.90,NNW,348,1.0,3.0,92,0.00,,---,0.00,0.00,VWS V14.01,2013-02-08 10:03:00,
2013-02-08 05:08:00,45.8,43.6,29.90,NNW,348,1.0,2.0,92,0.00,,---,0.00,0.00,VWS V14.01,2013-02-08 10:08:00,
2013-02-08 05:13:00,45.8,43.6,29.90,NNW,344,0.0,0.0,92,0.00,,---,0.00,0.00,VWS V14.01,2013-02-08 10:13:00,
2013-02-08 05:18:00,45.8,43.6,29.90,NNW,344,0.0,2.0,92,0.00,,---,0.00,0.00,VWS V14.01,2013-02-08 10:18:00,
2013-02-08 05:23:00,45.8,43.6,29.89,NNW,344,0.0,0.0,92,0.00,,---,0.00,0.00,VWS V14.01,2013-02-08 10:23:00,
2013-02-08 05:28:00,45.8,43.6,29.90,NNW,344,0.0,0.0,92,0.00,,---,0.00,0.00,VWS V14.01,2013-02-08 10:28:00,
2013-02-08 05:34:00,45.8,43.6,29.90,NNW,344,0.0,0.0,92,0.00,,---,0.00,0.00,VWS V14.01,2013-02-08 10:34:00,
2013-02-08 05:39:00,45.7,43.5,29.89,NNW,344,0.0,0.0,92,0.00,,---,0.00,0.00,VWS V14.01,2013-02-08 10:39:00,
2013-02-08 05:44:00,45.6,43.4,29.89,NNW,344,0.0,0.0,92,0.00,,---,0.00,0.00,VWS V14.01,2013-02-08 10:44:00,
2013-02-08 05:49:00,45.5,43.0,29.90,NNW,344,2.0,2.0,91,0.00,,---,0.00,0.00,VWS V14.01,2013-02-08 10:49:00,
2013-02-08 05:54:00,45.3,42.8,29.90,NNW,344,0.0,0.0,91,0.00,,---,0.00,0.00,VWS V14.01,2013-02-08 10:54:00,
2013-02-08 05:59:00,45.2,43.0,29.89,NNW,344,0.0,0.0,92,0.00,,---,0.00,0.00,VWS V14.01,2013-02-08 10:59:00,
2013-02-08 06:04:00,45.1,42.9,29.89,NNW,344,0.0,1.0,92,0.00,,---,0.00,0.00,VWS V14.01,2013-02-08 11:04:00,
2013-02-08 06:10:00,44.8,42.6,29.90,NNW,344,0.0,1.0,92,0.00,,---,0.00,0.00,VWS V14.01,2013-02-08 11:10:00,
2013-02-08 06:15:00,44.6,42.4,29.90,NNW,343,1.0,2.0,92,0.00,,---,0.00,0.00,VWS V14.01,2013-02-08 11:15:00,
2013-02-08 06:20:00,44.4,42.2,29.90,NNW,343,0.0,1.0,92,0.00,,---,0.00,0.00,VWS V14.01,2013-02-08 11:20:00,
2013-02-08 06:25:00,44.2,42.0,29.90,NNW,343,0.0,1.0,92,0.00,,---,0.00,0.00,VWS V14.01,2013-02-08 11:25:00,
2013-02-08 06:30:00,44.1,41.9,29.91,NNW,343,0.0,1.0,92,0.00,,---,0.00,0.00,VWS V14.01,2013-02-08 11:30:00,
2013-02-08 06:35:00,44.0,41.8,29.91,NNW,343,1.0,3.0,92,0.00,,---,0.00,0.00,VWS V14.01,2013-02-08 11:35:00,
2013-02-08 06:40:00,43.9,42.0,29.91,NNW,342,0.0,2.0,93,0.00,,---,0.00,0.00,VWS V14.01,2013-02-08 11:40:00,
2013-02-08 06:45:00,43.8,41.9,29.91,NNW,342,0.0,2.0,93,0.00,,---,0.00,0.00,VWS V14.01,2013-02-08 11:45:00,
2013-02-08 06:50:00,43.7,41.8,29.92,NNW,342,0.0,1.0,93,0.00,,---,0.00,0.00,VWS V14.01,2013-02-08 11:50:00,
2013-02-08 06:55:00,43.6,41.7,29.93,NNW,336,1.0,3.0,93,0.00,,---,0.00,0.00,VWS V14.01,2013-02-08 11:55:00,
2013-02-08 07:00:00,43.4,41.5,29.93,NW,311,2.0,4.0,93,0.00,,---,0.00,0.00,VWS V14.01,2013-02-08 12:00:00,
2013-02-08 07:05:00,43.3,41.7,29.93,WNW,286,3.0,6.0,94,0.00,,---,0.00,0.00,VWS V14.01,2013-02-08 12:05:00,
2013-02-08 07:10:00,43.4,41.8,29.94,WNW,287,4.0,6.0,94,0.00,,---,0.00,0.00,VWS V14.01,2013-02-08 12:10:00,
2013-02-08 07:15:00,43.4,41.8,29.94,WNW,286,4.0,6.0,94,0.00,,---,0.00,0.00,VWS V14.01,2013-02-08 12:15:00,
2013-02-08 07:20:00,43.6,42.0,29.94,WNW,282,1.0,5.0,94,0.00,,---,0.00,0.00,VWS V14.01,2013-02-08 12:20:00,
2013-02-08 07:26:00,43.7,42.1,29.95,WNW,282,2.0,5.0,94,0.00,,---,0.00,7.00,VWS V14.01,2013-02-08 12:26:00,
2013-02-08 07:31:00,43.8,42.2,29.95,WNW,282,0.0,3.0,94,0.00,,---,0.00,11.00,VWS V14.01,2013-02-08 12:31:00,
2013-02-08 07:36:00,43.8,42.2,29.95,WNW,283,3.0,5.0,94,0.00,,---,0.00,16.00,VWS V14.01,2013-02-08 12:36:00,
2013-02-08 07:41:00,43.9,42.6,29.95,WNW,283,6.0,6.0,95,0.00,,---,0.00,21.00,VWS V14.01,2013-02-08 12:41:00,
2013-02-08 07:46:00,44.0,42.4,29.97,WNW,286,1.0,4.0,94,0.00,,---,0.00,16.00,VWS V14.01,2013-02-08 12:46:00,
2013-02-08 07:51:00,44.2,42.6,29.96,WNW,285,0.0,5.0,94,0.00,,---,0.00,21.00,VWS V14.01,2013-02-08 12:51:00,
2013-02-08 07:56:00,44.2,42.6,29.96,WNW,288,1.0,5.0,94,0.00,,---,0.00,28.00,VWS V14.01,2013-02-08 12:56:00,
2013-02-08 08:01:00,44.3,43.0,29.96,WNW,287,0.0,5.0,95,0.00,,---,0.00,40.00,VWS V14.01,2013-02-08 13:01:00,
2013-02-08 08:06:00,44.5,43.2,29.96,NW,325,0.0,5.0,95,0.00,,---,0.00,51.00,VWS V14.01,2013-02-08 13:06:00,
2013-02-08 08:11:00,44.6,43.0,29.96,NNW,330,0.0,5.0,94,0.00,,---,0.00,49.00,VWS V14.01,2013-02-08 13:11:00,
2013-02-08 08:16:00,44.7,43.1,29.96,NNW,327,2.0,4.0,94,0.00,,---,0.00,60.00,VWS V14.01,2013-02-08 13:16:00,
2013-02-08 08:21:00,44.7,43.1,29.96,NW,317,3.0,3.0,94,0.00,,---,0.00,67.00,VWS V14.01,2013-02-08 13:21:00,
2013-02-08 08:26:00,44.9,43.3,29.97,NW,315,1.0,1.0,94,0.00,,---,0.00,72.00,VWS V14.01,2013-02-08 13:26:00,
2013-02-08 08:32:00,45.0,43.4,29.96,NW,316,2.0,2.0,94,0.00,,---,0.00,79.00,VWS V14.01,2013-02-08 13:32:00,
2013-02-08 08:37:00,45.1,43.5,29.97,NW,309,3.0,3.0,94,0.00,,---,0.00,88.00,VWS V14.01,2013-02-08 13:37:00,
2013-02-08 08:42:00,45.2,43.6,29.97,WNW,289,5.0,5.0,94,0.00,,---,0.00,93.00,VWS V14.01,2013-02-08 13:42:00,
2013-02-08 08:47:00,45.4,43.8,29.98,NNW,346,2.0,3.0,94,0.00,,---,0.00,98.00,VWS V14.01,2013-02-08 13:47:00,
2013-02-08 08:52:00,45.5,43.6,29.98,WNW,292,2.0,3.0,93,0.00,,---,0.00,105.00,VWS V14.01,2013-02-08 13:52:00,
2013-02-08 08:57:00,45.6,43.7,29.98,WNW,298,6.0,6.0,93,0.00,,---,0.00,121.00,VWS V14.01,2013-02-08 13:57:00,
2013-02-08 09:02:00,45.6,43.7,29.99,West,273,4.0,7.0,93,0.00,,---,0.00,114.00,VWS V14.01,2013-02-08 14:02:00,
2013-02-08 09:07:00,45.8,43.9,29.99,West,279,3.0,3.0,93,0.00,,---,0.00,111.00,VWS V14.01,2013-02-08 14:07:00,
2013-02-08 09:12:00,45.9,44.0,29.98,West,279,4.0,4.0,93,0.00,,---,0.00,137.00,VWS V14.01,2013-02-08 14:12:00,
2013-02-08 09:17:00,46.0,43.8,29.98,West,280,5.0,5.0,92,0.00,,---,0.00,148.00,VWS V14.01,2013-02-08 14:17:00,
2013-02-08 09:22:00,46.1,43.9,29.99,WNW,283,4.0,4.0,92,0.00,,---,0.00,158.00,VWS V14.01,2013-02-08 14:22:00,
2013-02-08 09:27:00,46.2,44.0,29.99,WNW,285,3.0,3.0,92,0.00,,---,0.00,172.00,VWS V14.01,2013-02-08 14:27:00,
2013-02-08 09:32:00,46.3,44.1,29.99,WNW,293,3.0,6.0,92,0.00,,---,0.00,225.00,VWS V14.01,2013-02-08 14:32:00,
2013-02-08 09:37:00,46.5,44.0,29.99,WNW,285,4.0,5.0,91,0.00,,---,0.00,176.00,VWS V14.01,2013-02-08 14:37:00,
2013-02-08 09:43:00,46.7,44.2,29.99,NW,309,2.0,4.0,91,0.00,,---,0.00,174.00,VWS V14.01,2013-02-08 14:43:00,
2013-02-08 09:48:00,46.8,44.3,29.99,West,274,5.0,6.0,91,0.00,,---,0.00,202.00,VWS V14.01,2013-02-08 14:48:00,
2013-02-08 09:53:00,46.9,44.4,29.99,WNW,287,4.0,4.0,91,0.00,,---,0.00,213.00,VWS V14.01,2013-02-08 14:53:00,
2013-02-08 09:58:00,46.9,44.1,29.99,WNW,290,4.0,6.0,90,0.00,,---,0.00,190.00,VWS V14.01,2013-02-08 14:58:00,
2013-02-08 10:03:00,47.1,44.3,29.99,WNW,284,4.0,7.0,90,0.00,,---,0.00,211.00,VWS V14.01,2013-02-08 15:03:00,
2013-02-08 10:08:00,47.2,44.4,29.99,WNW,286,4.0,5.0,90,0.00,,---,0.00,237.00,VWS V14.01,2013-02-08 15:08:00,
2013-02-08 10:13:00,47.4,44.6,29.99,WNW,287,0.0,5.0,90,0.00,,---,0.00,230.00,VWS V14.01,2013-02-08 15:13:00,
2013-02-08 10:18:00,47.5,44.7,30.00,NW,307,3.0,9.0,90,0.00,,---,0.00,220.00,VWS V14.01,2013-02-08 15:18:00,
2013-02-08 10:23:00,47.5,44.4,30.00,West,269,6.0,8.0,89,0.00,,---,0.00,202.00,VWS V14.01,2013-02-08 15:23:00,
2013-02-08 10:28:00,47.7,44.9,29.99,WNW,287,2.0,4.0,90,0.00,,---,0.00,223.00,VWS V14.01,2013-02-08 15:28:00,
2013-02-08 10:33:00,47.8,45.0,29.99,WNW,290,5.0,8.0,90,0.00,,---,0.00,223.00,VWS V14.01,2013-02-08 15:33:00,
2013-02-08 10:39:00,47.9,44.8,29.98,West,279,3.0,5.0,89,0.00,,---,0.00,232.00,VWS V14.01,2013-02-08 15:39:00,
2013-02-08 10:44:00,48.0,44.9,29.99,West,265,4.0,9.0,89,0.00,,---,0.00,243.00,VWS V14.01,2013-02-08 15:44:00,
2013-02-08 10:49:00,48.1,45.0,29.99,West,275,7.0,10.0,89,0.00,,---,0.00,223.00,VWS V14.01,2013-02-08 15:49:00,
2013-02-08 10:54:00,48.1,45.0,29.99,West,281,7.0,8.0,89,0.00,,---,0.00,237.00,VWS V14.01,2013-02-08 15:54:00,
2013-02-08 10:59:00,48.2,45.1,29.99,West,267,6.0,6.0,89,0.00,,---,0.00,227.00,VWS V14.01,2013-02-08 15:59:00,
2013-02-08 11:04:00,48.2,46.0,29.99,West,264,6.0,7.0,92,0.00,,---,0.00,248.00,VWS V14.01,2013-02-08 16:04:00,
2013-02-08 11:09:00,48.3,44.9,30.00,WSW,250,8.0,10.0,88,0.00,,---,0.00,244.00,VWS V14.01,2013-02-08 16:09:00,
2013-02-08 11:14:00,48.4,45.0,29.99,WSW,257,5.0,8.0,88,0.00,,---,0.00,262.00,VWS V14.01,2013-02-08 16:14:00,
2013-02-08 11:19:00,48.5,45.4,29.99,West,279,4.0,7.0,89,0.00,,---,0.00,285.00,VWS V14.01,2013-02-08 16:19:00,
2013-02-08 11:24:00,48.7,45.3,30.00,WNW,293,5.0,8.0,88,0.00,,---,0.00,237.00,VWS V14.01,2013-02-08 16:24:00,
2013-02-08 11:29:00,48.7,45.3,29.99,WSW,247,5.0,8.0,88,0.00,,---,0.00,283.00,VWS V14.01,2013-02-08 16:29:00,
2013-02-08 11:35:00,48.9,45.5,29.99,West,279,3.0,7.0,88,0.00,,---,0.00,315.00,VWS V14.01,2013-02-08 16:35:00,
2013-02-08 11:40:00,49.1,45.7,29.98,NW,326,3.0,7.0,88,0.00,,---,0.00,287.00,VWS V14.01,2013-02-08 16:40:00,
2013-02-08 11:45:00,49.2,45.5,29.98,WNW,292,3.0,9.0,87,0.00,,---,0.00,288.00,VWS V14.01,2013-02-08 16:45:00,
2013-02-08 11:50:00,49.3,45.9,29.98,West,270,6.0,6.0,88,0.00,,---,0.00,348.00,VWS V14.01,2013-02-08 16:50:00,
2013-02-08 11:55:00,49.6,45.9,29.98,WSW,254,6.0,10.0,87,0.00,,---,0.00,425.00,VWS V14.01,2013-02-08 16:55:00,
2013-02-08 12:00:00,50.3,46.9,29.98,WSW,244,6.0,10.0,88,0.00,,---,0.00,506.00,VWS V14.01,2013-02-08 17:00:00,
2013-02-08 12:05:00,51.2,47.2,29.98,SW,220,7.0,9.0,86,0.00,,---,0.00,937.00,VWS V14.01,2013-02-08 17:05:00,
2013-02-08 12:10:00,52.2,47.8,29.98,WSW,252,6.0,10.0,85,0.00,,---,0.00,617.00,VWS V14.01,2013-02-08 17:10:00,
2013-02-08 12:15:00,52.4,47.1,29.98,West,281,9.0,9.0,82,0.00,,---,0.00,357.00,VWS V14.01,2013-02-08 17:15:00,
2013-02-08 12:21:00,52.4,47.4,29.98,WNW,291,6.0,8.0,83,0.00,,---,0.00,485.00,VWS V14.01,2013-02-08 17:21:00,
2013-02-08 12:26:00,52.3,47.0,29.98,WSW,254,6.0,10.0,82,0.00,,---,0.00,388.00,VWS V14.01,2013-02-08 17:26:00,
2013-02-08 12:31:00,52.5,47.5,29.98,WNW,286,4.0,8.0,83,0.00,,---,0.00,512.00,VWS V14.01,2013-02-08 17:31:00,
2013-02-08 12:36:00,52.8,47.8,29.97,WNW,300,4.0,10.0,83,0.00,,---,0.00,795.00,VWS V14.01,2013-02-08 17:36:00,
2013-02-08 12:41:00,53.5,48.2,29.97,WNW,292,5.0,7.0,82,0.00,,---,0.00,763.00,VWS V14.01,2013-02-08 17:41:00,
2013-02-08 12:46:00,53.6,47.9,29.97,WNW,286,6.0,10.0,81,0.00,,---,0.00,738.00,VWS V14.01,2013-02-08 17:46:00,
2013-02-08 12:51:00,53.9,47.9,29.96,SW,215,6.0,8.0,80,0.00,,---,0.00,712.00,VWS V14.01,2013-02-08 17:51:00,
2013-02-08 12:56:00,54.3,48.6,29.96,WSW,258,4.0,8.0,81,0.00,,---,0.00,710.00,VWS V14.01,2013-02-08 17:56:00,
2013-02-08 13:01:00,54.9,48.5,29.96,WSW,247,6.0,7.0,79,0.00,,---,0.00,708.00,VWS V14.01,2013-02-08 18:01:00,
2013-02-08 13:06:00,55.3,48.6,29.96,West,269,5.0,10.0,78,0.00,,---,0.00,705.00,VWS V14.01,2013-02-08 18:06:00,
2013-02-08 13:11:00,55.6,48.9,29.96,SSW,208,5.0,5.0,78,0.00,,---,0.00,698.00,VWS V14.01,2013-02-08 18:11:00,
2013-02-08 13:17:00,56.2,49.4,29.96,WNW,296,4.0,7.0,78,0.00,,---,0.00,696.00,VWS V14.01,2013-02-08 18:17:00,
2013-02-08 13:22:00,56.5,49.4,29.96,SW,221,5.0,6.0,77,0.00,,---,0.00,694.00,VWS V14.01,2013-02-08 18:22:00,
2013-02-08 13:27:00,56.7,49.2,29.95,West,263,8.0,9.0,76,0.00,,---,0.00,689.00,VWS V14.01,2013-02-08 18:27:00,
2013-02-08 13:32:00,56.8,49.0,29.95,WNW,285,9.0,9.0,75,0.00,,---,0.00,680.00,VWS V14.01,2013-02-08 18:32:00,
2013-02-08 13:38:00,57.2,49.4,29.95,SSW,208,3.0,7.0,75,0.00,,---,0.00,680.00,VWS V14.01,2013-02-08 18:38:00,
2013-02-08 13:43:00,57.8,49.9,29.95,SSW,208,10.0,13.0,75,0.00,,---,0.00,671.00,VWS V14.01,2013-02-08 18:43:00,
2013-02-08 13:48:00,58.2,50.0,29.95,WSW,239,12.0,12.0,74,0.00,,---,0.00,657.00,VWS V14.01,2013-02-08 18:48:00,
2013-02-08 13:53:00,58.4,49.4,29.95,SW,236,7.0,12.0,72,0.00,,---,0.00,642.00,VWS V14.01,2013-02-08 18:53:00,
2013-02-08 13:58:00,58.5,49.9,29.94,West,271,8.0,10.0,73,0.00,,---,0.00,622.00,VWS V14.01,2013-02-08 18:58:00,
2013-02-08 14:03:00,58.5,49.5,29.94,West,277,7.0,11.0,72,0.00,,---,0.00,603.00,VWS V14.01,2013-02-08 19:03:00,
2013-02-08 14:08:00,59.1,50.1,29.94,WSW,252,9.0,10.0,72,0.00,,---,0.00,573.00,VWS V14.01,2013-02-08 19:08:00,
2013-02-08 14:14:00,59.2,50.2,29.94,West,281,6.0,9.0,72,0.00,,---,0.00,527.00,VWS V14.01,2013-02-08 19:14:00,
2013-02-08 14:19:00,59.7,50.3,29.93,SW,236,8.0,8.0,71,0.00,,---,0.00,420.00,VWS V14.01,2013-02-08 19:19:00,
2013-02-08 14:24:00,59.9,50.1,29.94,WSW,258,7.0,11.0,70,0.00,,---,0.00,438.00,VWS V14.01,2013-02-08 19:24:00,
2013-02-08 14:29:00,60.4,50.6,29.94,West,265,5.0,14.0,70,0.00,,---,0.00,501.00,VWS V14.01,2013-02-08 19:29:00,
2013-02-08 14:34:00,60.4,50.2,29.94,SSW,208,11.0,12.0,69,0.00,,---,0.00,527.00,VWS V14.01,2013-02-08 19:34:00,
2013-02-08 14:39:00,60.1,49.9,29.94,WSW,247,8.0,13.0,69,0.00,,---,0.00,527.00,VWS V14.01,2013-02-08 19:39:00,
2013-02-08 14:44:00,60.4,50.2,29.94,West,271,9.0,11.0,69,0.00,,---,0.00,446.00,VWS V14.01,2013-02-08 19:44:00,
2013-02-08 14:49:00,60.8,50.6,29.93,SW,235,14.0,14.0,69,0.00,,---,0.00,434.00,VWS V14.01,2013-02-08 19:49:00,
2013-02-08 14:54:00,60.9,50.3,29.93,WSW,253,7.0,11.0,68,0.00,,---,0.00,425.00,VWS V14.01,2013-02-08 19:54:00,
2013-02-08 15:00:00,61.3,50.7,29.93,WSW,253,6.0,11.0,68,0.00,,---,0.00,431.00,VWS V14.01,2013-02-08 20:00:00,
2013-02-08 15:05:00,61.7,50.6,29.93,West,265,8.0,13.0,67,0.00,,---,0.00,397.00,VWS V14.01,2013-02-08 20:05:00,
2013-02-08 15:10:00,61.8,50.7,29.92,West,277,4.0,10.0,67,0.00,,---,0.00,431.00,VWS V14.01,2013-02-08 20:10:00,
2013-02-08 15:15:00,62.0,50.5,29.92,West,259,12.0,16.0,66,0.00,,---,0.00,374.00,VWS V14.01,2013-02-08 20:15:00,
2013-02-08 15:20:00,62.1,51.0,29.92,WSW,251,10.0,10.0,67,0.00,,---,0.00,304.00,VWS V14.01,2013-02-08 20:20:00,
2013-02-08 15:25:00,62.6,50.7,29.92,WNW,285,5.0,11.0,65,0.00,,---,0.00,517.00,VWS V14.01,2013-02-08 20:25:00,
2013-02-08 15:30:00,62.9,51.4,29.92,WSW,246,11.0,14.0,66,0.00,,---,0.00,580.00,VWS V14.01,2013-02-08 20:30:00,
2013-02-08 15:35:00,63.1,50.7,29.92,West,275,8.0,13.0,64,0.00,,---,0.00,339.00,VWS V14.01,2013-02-08 20:35:00,
2013-02-08 15:40:00,62.9,51.0,29.93,WNW,283,9.0,17.0,65,0.00,,---,0.00,374.00,VWS V14.01,2013-02-08 20:40:00,
2013-02-08 15:45:00,62.8,50.9,29.93,WNW,301,7.0,13.0,65,0.00,,---,0.00,188.00,VWS V14.01,2013-02-08 20:45:00,
2013-02-08 15:51:00,62.6,50.7,29.93,West,261,7.0,12.0,65,0.00,,---,0.00,220.00,VWS V14.01,2013-02-08 20:51:00,
2013-02-08 15:56:00,62.3,50.8,29.93,West,265,9.0,14.0,66,0.00,,---,0.00,163.00,VWS V14.01,2013-02-08 20:56:00,
2013-02-08 16:01:00,62.1,50.6,29.93,WSW,240,8.0,14.0,66,0.00,,---,0.00,248.00,VWS V14.01,2013-02-08 21:01:00,
2013-02-08 16:06:00,62.1,51.0,29.93,WSW,244,5.0,10.0,67,0.00,,---,0.00,406.00,VWS V14.01,2013-02-08 21:06:00,
2013-02-08 16:11:00,62.6,51.1,29.93,WSW,240,11.0,13.0,66,0.00,,---,0.00,343.00,VWS V14.01,2013-02-08 21:11:00,
2013-02-08 16:16:00,62.8,51.3,29.93,WSW,251,8.0,15.0,66,0.00,,---,0.00,339.00,VWS V14.01,2013-02-08 21:16:00,
2013-02-08 16:21:00,62.8,51.3,29.93,WNW,283,9.0,12.0,66,0.00,,---,0.00,332.00,VWS V14.01,2013-02-08 21:21:00,
2013-02-08 16:26:00,62.7,51.2,29.93,WSW,254,6.0,14.0,66,0.00,,---,0.00,246.00,VWS V14.01,2013-02-08 21:26:00,
2013-02-08 16:31:00,62.9,51.0,29.93,WSW,250,11.0,18.0,65,0.00,,---,0.00,343.00,VWS V14.01,2013-02-08 21:31:00,
2013-02-08 16:36:00,63.0,51.1,29.93,West,281,8.0,14.0,65,0.00,,---,0.00,95.00,VWS V14.01,2013-02-08 21:36:00,
2013-02-08 16:41:00,62.8,50.9,29.93,West,266,8.0,13.0,65,0.00,,---,0.00,211.00,VWS V14.01,2013-02-08 21:41:00,
2013-02-08 16:46:00,62.6,50.7,29.93,West,265,7.0,13.0,65,0.00,,---,0.00,69.00,VWS V14.01,2013-02-08 21:46:00,
2013-02-08 16:51:00,62.3,50.4,29.93,WNW,282,8.0,12.0,65,0.00,,---,0.00,197.00,VWS V14.01,2013-02-08 21:51:00,
2013-02-08 16:56:00,62.3,50.8,29.93,West,281,5.0,10.0,66,0.00,,---,0.00,149.00,VWS V14.01,2013-02-08 21:56:00,
2013-02-08 17:01:00,62.4,50.9,29.94,West,277,8.0,8.0,66,0.00,,---,0.00,132.00,VWS V14.01,2013-02-08 22:01:00,
2013-02-08 17:06:00,62.5,51.0,29.93,West,274,4.0,4.0,66,0.00,,---,0.00,95.00,VWS V14.01,2013-02-08 22:06:00,
2013-02-08 17:12:00,62.5,51.0,29.94,West,269,3.0,3.0,66,0.00,,---,0.00,37.00,VWS V14.01,2013-02-08 22:12:00,
2013-02-08 17:17:00,62.5,51.4,29.94,WNW,287,5.0,5.0,67,0.00,,---,0.00,44.00,VWS V14.01,2013-02-08 22:17:00,
2013-02-08 17:22:00,62.2,50.7,29.94,WNW,285,8.0,8.0,66,0.00,,---,0.00,28.00,VWS V14.01,2013-02-08 22:22:00,
2013-02-08 17:27:00,61.8,50.7,29.94,West,281,4.0,4.0,67,0.00,,---,0.00,21.00,VWS V14.01,2013-02-08 22:27:00,
2013-02-08 17:32:00,61.3,50.7,29.94,West,267,6.0,6.0,68,0.00,,---,0.00,19.00,VWS V14.01,2013-02-08 22:32:00,
2013-02-08 17:37:00,60.9,50.7,29.95,WNW,290,2.0,3.0,69,0.00,,---,0.00,21.00,VWS V14.01,2013-02-08 22:37:00,
2013-02-08 17:42:00,60.7,50.5,29.95,West,263,4.0,6.0,69,0.00,,---,0.00,16.00,VWS V14.01,2013-02-08 22:42:00,
2013-02-08 17:47:00,60.4,50.6,29.95,WNW,295,3.0,4.0,70,0.00,,---,0.00,19.00,VWS V14.01,2013-02-08 22:47:00,
2013-02-08 17:52:00,60.3,50.5,29.95,WNW,290,3.0,4.0,70,0.00,,---,0.00,14.00,VWS V14.01,2013-02-08 22:52:00,
2013-02-08 17:57:00,60.0,50.6,29.95,West,278,3.0,5.0,71,0.00,,---,0.00,7.00,VWS V14.01,2013-02-08 22:57:00,
2013-02-08 18:05:00,59.6,50.6,29.96,West,267,8.0,8.0,72,0.00,,---,0.00,0.00,VWS V14.01,2013-02-08 23:05:00,
2013-02-08 18:10:00,59.5,50.5,29.96,WNW,286,10.0,13.0,72,0.00,,---,0.00,0.00,VWS V14.01,2013-02-08 23:10:00,
2013-02-08 18:16:00,59.4,50.4,29.97,WSW,255,6.0,9.0,72,0.00,,---,0.00,0.00,VWS V14.01,2013-02-08 23:16:00,
2013-02-08 18:21:00,59.3,50.3,29.97,West,267,10.0,10.0,72,0.00,,---,0.00,0.00,VWS V14.01,2013-02-08 23:21:00,
2013-02-08 18:26:00,59.1,50.1,29.97,West,260,2.0,10.0,72,0.00,,---,0.00,0.00,VWS V14.01,2013-02-08 23:26:00,
2013-02-08 18:31:00,58.8,50.2,29.97,West,265,8.0,11.0,73,0.00,,---,0.00,0.00,VWS V14.01,2013-02-08 23:31:00,
2013-02-08 18:36:00,58.6,50.0,29.97,West,269,3.0,8.0,73,0.00,,---,0.00,0.00,VWS V14.01,2013-02-08 23:36:00,
2013-02-08 18:41:00,58.3,50.1,29.97,West,278,3.0,7.0,74,0.00,,---,0.00,0.00,VWS V14.01,2013-02-08 23:41:00,
2013-02-08 18:46:00,58.0,49.8,29.97,West,279,4.0,4.0,74,0.00,,---,0.00,0.00,VWS V14.01,2013-02-08 23:46:00,
2013-02-08 18:51:00,57.7,49.5,29.98,West,273,2.0,5.0,74,0.00,,---,0.00,0.00,VWS V14.01,2013-02-08 23:51:00,
2013-02-08 18:56:00,57.4,49.5,29.98,West,274,2.0,4.0,75,0.00,,---,0.00,0.00,VWS V14.01,2013-02-08 23:56:00,
2013-02-08 19:01:00,57.2,49.7,29.98,West,275,0.0,3.0,76,0.00,,---,0.00,0.00,VWS V14.01,2013-02-09 00:01:00,
2013-02-08 19:06:00,56.9,49.4,29.99,West,275,0.0,2.0,76,0.00,,---,0.00,0.00,VWS V14.01,2013-02-09 00:06:00,
2013-02-08 19:11:00,56.7,49.2,29.99,West,275,0.0,3.0,76,0.00,,---,0.00,0.00,VWS V14.01,2013-02-09 00:11:00,
2013-02-08 19:16:00,56.4,49.3,29.99,West,275,0.0,2.0,77,0.00,,---,0.00,0.00,VWS V14.01,2013-02-09 00:16:00,
2013-02-08 19:21:00,56.2,49.4,29.99,West,275,0.0,0.0,78,0.00,,---,0.00,0.00,VWS V14.01,2013-02-09 00:21:00,
2013-02-08 19:27:00,56.0,49.2,29.99,West,275,2.0,2.0,78,0.00,,---,0.00,0.00,VWS V14.01,2013-02-09 00:27:00,
2013-02-08 19:32:00,55.8,49.4,30.00,West,275,0.0,0.0,79,0.00,,---,0.00,0.00,VWS V14.01,2013-02-09 00:32:00,
2013-02-08 19:37:00,55.5,49.1,29.99,West,274,1.0,1.0,79,0.00,,---,0.00,0.00,VWS V14.01,2013-02-09 00:37:00,
2013-02-08 19:42:00,55.3,49.2,30.00,West,274,2.0,3.0,80,0.00,,---,0.00,0.00,VWS V14.01,2013-02-09 00:42:00,
2013-02-08 19:47:00,55.1,49.0,30.00,West,273,2.0,2.0,80,0.00,,---,0.00,0.00,VWS V14.01,2013-02-09 00:47:00,
2013-02-08 19:52:00,54.9,48.9,30.00,West,273,2.0,3.0,80,0.00,,---,0.00,0.00,VWS V14.01,2013-02-09 00:52:00,
2013-02-08 19:57:00,54.8,49.1,30.00,West,273,0.0,0.0,81,0.00,,---,0.00,0.00,VWS V14.01,2013-02-09 00:57:00,
2013-02-08 20:02:00,54.6,48.9,30.00,West,273,0.0,1.0,81,0.00,,---,0.00,0.00,VWS V14.01,2013-02-09 01:02:00,
2013-02-08 20:07:00,54.4,48.7,30.01,West,273,0.0,0.0,81,0.00,,---,0.00,0.00,VWS V14.01,2013-02-09 01:07:00,
2013-02-08 20:12:00,54.2,48.8,30.01,West,273,0.0,0.0,82,0.00,,---,0.00,0.00,VWS V14.01,2013-02-09 01:12:00,
2013-02-08 20:17:00,54.1,48.7,30.02,West,273,0.0,0.0,82,0.00,,---,0.00,0.00,VWS V14.01,2013-02-09 01:17:00,
2013-02-08 20:23:00,54.0,48.6,30.02,West,273,0.0,0.0,82,0.00,,---,0.00,0.00,VWS V14.01,2013-02-09 01:23:00,
2013-02-08 20:28:00,53.8,48.4,30.02,West,273,0.0,0.0,82,0.00,,---,0.00,0.00,VWS V14.01,2013-02-09 01:28:00,
2013-02-08 20:33:00,53.5,48.5,30.02,West,273,0.0,1.0,83,0.00,,---,0.00,0.00,VWS V14.01,2013-02-09 01:33:00,
2013-02-08 20:38:00,53.3,48.3,30.02,West,273,0.0,0.0,83,0.00,,---,0.00,0.00,VWS V14.01,2013-02-09 01:38:00,
2013-02-08 20:43:00,53.2,48.2,30.03,West,273,0.0,0.0,83,0.00,,---,0.00,0.00,VWS V14.01,2013-02-09 01:43:00,
2013-02-08 20:48:00,52.9,48.2,30.03,West,273,0.0,0.0,84,0.00,,---,0.00,0.00,VWS V14.01,2013-02-09 01:48:00,
2013-02-08 20:53:00,52.8,48.1,30.03,West,273,0.0,0.0,84,0.00,,---,0.00,0.00,VWS V14.01,2013-02-09 01:53:00,
2013-02-08 20:59:00,52.6,48.2,30.03,West,273,0.0,0.0,85,0.00,,---,0.00,0.00,VWS V14.01,2013-02-09 01:59:00,
2013-02-08 21:04:00,52.3,47.9,30.03,West,273,0.0,2.0,85,0.00,,---,0.00,0.00,VWS V14.01,2013-02-09 02:04:00,
2013-02-08 21:09:00,52.0,47.6,30.03,West,273,0.0,0.0,85,0.00,,---,0.00,0.00,VWS V14.01,2013-02-09 02:09:00,
2013-02-08 21:14:00,51.7,47.3,30.03,West,273,0.0,0.0,85,0.00,,---,0.00,0.00,VWS V14.01,2013-02-09 02:14:00,
2013-02-08 21:19:00,51.5,47.5,30.04,West,273,0.0,0.0,86,0.00,,---,0.00,0.00,VWS V14.01,2013-02-09 02:19:00,
2013-02-08 21:24:00,51.2,47.5,30.04,West,273,0.0,1.0,87,0.00,,---,0.00,0.00,VWS V14.01,2013-02-09 02:24:00,
2013-02-08 21:29:00,51.1,47.7,30.05,West,273,0.0,3.0,88,0.00,,---,0.00,0.00,VWS V14.01,2013-02-09 02:29:00,
2013-02-08 21:34:00,51.0,47.6,30.05,West,275,1.0,4.0,88,0.00,,---,0.00,0.00,VWS V14.01,2013-02-09 02:34:00,
2013-02-08 21:39:00,51.0,47.9,30.05,West,275,1.0,3.0,89,0.00,,---,0.00,0.00,VWS V14.01,2013-02-09 02:39:00,
2013-02-08 21:44:00,51.0,47.9,30.05,West,275,0.0,3.0,89,0.00,,---,0.00,0.00,VWS V14.01,2013-02-09 02:44:00,
2013-02-08 21:50:00,51.0,47.9,30.05,West,275,2.0,3.0,89,0.00,,---,0.00,0.00,VWS V14.01,2013-02-09 02:50:00,
2013-02-08 21:55:00,51.1,48.0,30.05,West,275,0.0,3.0,89,0.00,,---,0.00,0.00,VWS V14.01,2013-02-09 02:55:00,
2013-02-08 22:00:00,51.2,48.1,30.05,West,276,0.0,3.0,89,0.00,,---,0.00,0.00,VWS V14.01,2013-02-09 03:00:00,
2013-02-08 22:05:00,51.2,48.1,30.06,West,276,0.0,1.0,89,0.00,,---,0.00,0.00,VWS V14.01,2013-02-09 03:05:00,
2013-02-08 22:10:00,51.3,48.2,30.06,West,276,1.0,4.0,89,0.00,,---,0.00,0.00,VWS V14.01,2013-02-09 03:10:00,
2013-02-08 22:15:00,51.4,48.3,30.06,WNW,285,3.0,6.0,89,0.00,,---,0.00,0.00,VWS V14.01,2013-02-09 03:15:00,
2013-02-08 22:20:00,51.5,48.4,30.06,West,277,0.0,4.0,89,0.00,,---,0.00,0.00,VWS V14.01,2013-02-09 03:20:00,
2013-02-08 22:25:00,51.6,48.2,30.06,West,275,2.0,4.0,88,0.00,,---,0.00,0.00,VWS V14.01,2013-02-09 03:25:00,
2013-02-08 22:30:00,51.7,48.3,30.07,West,275,3.0,3.0,88,0.00,,---,0.00,0.00,VWS V14.01,2013-02-09 03:30:00,
2013-02-08 22:35:00,51.7,48.3,30.07,West,275,0.0,3.0,88,0.00,,---,0.00,0.00,VWS V14.01,2013-02-09 03:35:00,
2013-02-08 22:40:00,51.7,48.3,30.07,West,278,0.0,4.0,88,0.00,,---,0.00,0.00,VWS V14.01,2013-02-09 03:40:00,
2013-02-08 22:46:00,51.6,48.2,30.07,West,278,0.0,2.0,88,0.00,,---,0.00,0.00,VWS V14.01,2013-02-09 03:46:00,
2013-02-08 22:51:00,51.5,48.1,30.07,WNW,291,3.0,4.0,88,0.00,,---,0.00,0.00,VWS V14.01,2013-02-09 03:51:00,
2013-02-08 22:56:00,51.4,48.0,30.08,WNW,294,3.0,4.0,88,0.00,,---,0.00,0.00,VWS V14.01,2013-02-09 03:56:00,
2013-02-08 23:01:00,51.3,47.9,30.08,WNW,295,0.0,4.0,88,0.00,,---,0.00,0.00,VWS V14.01,2013-02-09 04:01:00,
2013-02-08 23:06:00,51.2,47.8,30.08,WNW,294,1.0,4.0,88,0.00,,---,0.00,0.00,VWS V14.01,2013-02-09 04:06:00,
2013-02-08 23:11:00,51.0,47.6,30.08,WNW,294,0.0,3.0,88,0.00,,---,0.00,0.00,VWS V14.01,2013-02-09 04:11:00,
2013-02-08 23:16:00,50.8,47.4,30.08,WNW,294,0.0,2.0,88,0.00,,---,0.00,0.00,VWS V14.01,2013-02-09 04:16:00,
2013-02-08 23:21:00,50.7,47.3,30.08,WNW,294,0.0,1.0,88,0.00,,---,0.00,0.00,VWS V14.01,2013-02-09 04:21:00,
2013-02-08 23:26:00,50.5,47.4,30.09,WNW,294,0.0,3.0,89,0.00,,---,0.00,0.00,VWS V14.01,2013-02-09 04:26:00,
2013-02-08 23:31:00,50.3,46.9,30.09,WNW,293,1.0,4.0,88,0.00,,---,0.00,0.00,VWS V14.01,2013-02-09 04:31:00,
2013-02-08 23:36:00,50.1,46.7,30.09,WNW,294,0.0,3.0,88,0.00,,---,0.00,0.00,VWS V14.01,2013-02-09 04:36:00,
2013-02-08 23:41:00,49.8,46.1,30.09,WNW,292,3.0,3.0,87,0.00,,---,0.00,0.00,VWS V14.01,2013-02-09 04:41:00,
2013-02-08 23:46:00,49.6,45.6,30.10,WNW,292,0.0,4.0,86,0.00,,---,0.00,0.00,VWS V14.01,2013-02-09 04:46:00,
2013-02-08 23:51:00,49.5,45.5,30.10,WNW,292,0.0,0.0,86,0.00,,---,0.00,0.00,VWS V14.01,2013-02-09 04:51:00,
2013-02-08 23:56:00,49.3,45.0,30.11,WNW,292,0.0,2.0,85,0.00,,---,0.00,0.00,VWS V14.01,2013-02-09 04:56:00,